Location: Tamazert
(32.6352°N, 5.2072°W)
Time: 15:31:16
(UTC+00:00)

Vanguard 3 - Pass Details

Date: 10 October 2022
Orbit: 509 x 3255 km, 33.3° (Epoch: 08 December)

Event Time Altitude Azimuth Distance (km) Brightness Sun altitude
Rises 07:15:31 0° 259° (WSW) 2,732 9.3 10.4°
Reaches altitude 10° 07:17:47 10° 258° (WSW) 1,746 8.4 10.9°
Maximum altitude 07:21:29 86° 170° (S) 516 6.4 11.6°
Drops below altitude 10° 07:25:30 10° 82° (E) 1,888 10.5 12.4°
Sets 07:28:03 0° 82° (E) 2,986 11.3 12.9°
